Weather in Nizevo

Russia / Kirov Oblast     58°27′23″N   51°34′34″E
temp.,
°C
wind,
m/s
gust,
m/s
humid.,
%
clouds,
%
prec.,
mm/h
press.,
hPa
HPBL,
m
14 april, wed
wed1400:00+6ssw2999100 0.0 1031255
03:00+5sw2798100 0.0 1031312
06:00+4s269788 0.0 1030156
09:00+10ssw357051 0.0 1029297
12:00+14ssw365951 0.0 1028529
15:00+15ssw475629 0.0 1026726
18:00+11ssw248114 0.0 102571
21:00+8ssw23905 0.0 102454
15 april, thu
thu1500:00+7ssw23915 0.0 102342
03:00+6ssw23945 0.0 102254
06:00+7ssw27945 0.0 1021178
09:00+13sw36775 0.0 1020492
12:00+16wsw456650 0.1 10181140
15:00+17wnw355544 1.2 10171475
18:00+8nne6117754 0.2 1021619
21:00+5nne51182100 0.2 1023641
16 april, fri
fri1600:00+4nne4107399 0.0 1024806
03:00+3ne4116198 0.0 1026693
06:00+2ne396830 0.0 1028574
09:00+5ne45460 0.0 10281039
12:00+8nne343513 0.0 10281361
15:00+9nne343118 0.0 10271531
18:00+6n24455 0.0 102787
21:00+3n22595 0.0 102829
17 april, sat
sat1700:00+1n22665 0.0 102820
03:000nw22734 0.0 102827
06:00+2nw27715 0.0 1028243
09:00+6nw36515 0.0 10281270
12:00+7nnw4550100 0.0 10271604
15:00+7nnw4756100 0.1 10271633
18:00+5nnw386379 0.1 10271099
21:00+2nw3107615 0.1 1027450
18 april, sun
sun1800:00+1nw411775 0.0 1028587
03:000nnw411785 0.0 1028614
06:00+1nnw410755 0.0 1029956
09:00+3n594937 0.0 10301304
12:00+5n5946100 0.0 10301831
15:00+5ne343383 0.0 10332194
18:00+4nnw365236 0.0 1033369
21:000nne22705 0.0 103428